Weather History for Fort Sill, OK

Change the Weather History Date:

Saturday, February 9, 2013

  Actual Average Record
Temperature  
Mean Temperature 46 °F -  
Max Temperature 51 °F 51 °F 85 °F (1957)
Min Temperature 40 °F 27 °F 6 °F (1979)
Degree Days  
Heating Degree Days 20    
Moisture  
Dew Point 44 °F    
Average Humidity 90    
Maximum Humidity 100    
Minimum Humidity 66    
Precipitation  
Precipitation 0.01 in - - ()
Sea Level Pressure  
Sea Level Pressure 29.84 in    
Wind  
Wind Speed 14 mph (SSE)    
Max Wind Speed 26 mph    
Max Gust Speed 32 mph    
Visibility 6 miles    
Events Rain    
Averages and records for this station are not official NWS values.
T = Trace of Precipitation, MM = Missing Value Source: NWS Daily Summary

Daily Weather History Graph

Daily Weather History Graph

Search for Another Location

Airport:

Trip Planner

Search our weather history database for the weather conditions in past years. The results will help you decide how hot, cold, wet, or windy it might be!

Date:

Astronomy

Feb. 09, 2013 Rise Set
Actual Time 7:24 AM CST 6:11 PM CST
Civil Twilight 6:58 AM CST 6:37 PM CST
Nautical Twilight 6:29 AM CST 7:07 PM CST
Astronomical Twilight 5:59 AM CST 7:36 PM CST
Moon 6:37 AM CST (2/9) 5:54 PM CST (2/9)
Length of Visible Light 11h 38m
Length of Day
10h 46m
Waning Crescent, 0% of the Moon is Illuminated
Feb 9
Waning Crescent
Feb 10
New
Feb 17
First Quarter
Feb 25
Full
Mar 4
Last Quarter

Hourly Weather History & Observations

Time (CST) Temp. Windchill Dew Point Humidity Pressure Visibility Wind Dir Wind Speed Gust Speed Precip Events Conditions
12:55 AM 40.3 °F 35.5 °F 31.8 °F 72% 30.10 in 10.0 mi ESE 6.9 mph - N/A   Clear
1:55 AM 42.3 °F 37.3 °F 32.2 °F 67% 30.07 in 10.0 mi SE 8.1 mph - N/A   Partly Cloudy
2:55 AM 42.4 °F 37.5 °F 32.7 °F 68% 30.04 in 10.0 mi ESE 8.1 mph - N/A   Clear
3:55 AM 43.7 °F 37.7 °F 33.1 °F 66% 30.04 in 10.0 mi SSE 11.5 mph - N/A   Clear
4:55 AM 43.7 °F 37.7 °F 34.7 °F 71% 30.02 in 10.0 mi SSE 11.5 mph - N/A   Clear
5:55 AM 42.6 °F 36.8 °F 36.1 °F 78% 30.01 in 10.0 mi SSE 10.4 mph - N/A   Clear
6:55 AM 42.1 °F 36.1 °F 37.2 °F 83% 30.01 in 10.0 mi SE 10.4 mph - N/A   Partly Cloudy
7:55 AM 43.0 °F 36.8 °F 38.5 °F 84% 30.01 in 10.0 mi SE 11.5 mph - N/A   Overcast
8:17 AM 44.6 °F 38.4 °F 41.0 °F 87% 30.00 in 10.0 mi SSE 12.7 mph - N/A   Overcast
8:27 AM 46.4 °F 40.1 °F 41.0 °F 81% 30.01 in 10.0 mi SSE 15.0 mph - N/A   Overcast
8:55 AM 47.1 °F - 42.6 °F 84% 29.99 in 10.0 mi SSE 20.7 mph - N/A   Overcast
9:55 AM 47.5 °F - 43.0 °F 84% 29.99 in 10.0 mi SSE 18.4 mph 25.3 mph N/A   Overcast
10:55 AM 47.7 °F - 43.3 °F 85% 29.98 in 10.0 mi SE 18.4 mph - N/A   Overcast
11:55 AM 47.3 °F - 42.4 °F 83% 29.95 in 10.0 mi SE 19.6 mph 24.2 mph N/A   Overcast
12:05 PM 48.2 °F - 42.8 °F 82% 29.95 in 10.0 mi SSE 20.7 mph - N/A   Light Drizzle
12:14 PM 46.4 °F 38.7 °F 42.8 °F 87% 29.94 in 10.0 mi SSE 20.7 mph 26.5 mph N/A   Overcast
12:55 PM 47.1 °F - 42.6 °F 84% 29.90 in 10.0 mi SSE 20.7 mph 27.6 mph 0.00 in   Overcast
1:02 PM 46.4 °F 39.2 °F 42.8 °F 87% 29.90 in 10.0 mi SE 18.4 mph - N/A   Light Drizzle
1:11 PM 46.4 °F 39.2 °F 42.8 °F 87% 29.89 in 10.0 mi SE 18.4 mph - N/A   Overcast
1:42 PM 46.4 °F 39.5 °F 42.8 °F 87% 29.87 in 10.0 mi SE 17.3 mph - N/A   Overcast
1:55 PM 46.0 °F 38.8 °F 42.4 °F 87% 29.86 in 10.0 mi SE 18.4 mph 24.2 mph 0.00 in   Overcast
2:07 PM 46.4 °F 39.2 °F 42.8 °F 87% 29.85 in 10.0 mi SE 18.4 mph 26.5 mph N/A   Overcast
2:20 PM 46.4 °F 39.5 °F 42.8 °F 87% 29.84 in 8.0 mi SSE 17.3 mph - N/A   Overcast
2:55 PM 45.7 °F 38.0 °F 44.1 °F 94% 29.81 in 6.0 mi SE 19.6 mph 25.3 mph N/A   Overcast
3:43 PM 46.4 °F 39.5 °F 44.6 °F 93% 29.79 in 4.0 mi SSE 17.3 mph - N/A   Overcast
3:55 PM 45.3 °F 37.8 °F 44.2 °F 96% 29.78 in 3.0 mi SE 18.4 mph 26.5 mph N/A   Overcast
4:17 PM 44.6 °F 36.9 °F 44.6 °F 100% 29.77 in 3.0 mi SE 18.4 mph 27.6 mph N/A   Overcast
4:55 PM 45.1 °F 37.1 °F 44.4 °F 97% 29.75 in 3.0 mi SE 20.7 mph - N/A   Overcast
5:23 PM 44.6 °F 37.4 °F 44.6 °F 100% 29.76 in 2.5 mi SE 16.1 mph - N/A   Overcast
5:29 PM 44.6 °F 38.4 °F 44.6 °F 100% 29.76 in 2.5 mi SE 12.7 mph - N/A   Overcast
5:55 PM 45.7 °F 39.1 °F 45.5 °F 99% 29.76 in 2.0 mi SSE 15.0 mph - N/A   Overcast
6:00 PM 46.4 °F 39.8 °F 46.4 °F 100% 29.75 in 1.8 mi SSE 16.1 mph - N/A   Overcast
6:19 PM 46.4 °F 39.2 °F 46.4 °F 100% 29.75 in 1.5 mi SSE 18.4 mph - N/A   Overcast
6:20 PM 46.4 °F 39.0 °F 46.4 °F 100% 29.75 in 1.8 mi SSE 19.6 mph - N/A   Overcast
6:24 PM 46.4 °F 39.5 °F 46.4 °F 100% 29.74 in 2.0 mi SE 17.3 mph - N/A   Overcast
6:55 PM 46.8 °F - 46.8 °F 100% 29.73 in 2.5 mi SSE 17.3 mph - N/A   Overcast
7:53 PM 48.2 °F - 48.2 °F 100% 29.71 in 3.0 mi SSE 20.7 mph 26.5 mph N/A   Overcast
7:55 PM 48.6 °F - 48.6 °F 100% 29.71 in 3.0 mi SSE 19.6 mph - N/A   Overcast
8:11 PM 48.2 °F - 48.2 °F 100% 29.70 in 2.5 mi SSE 19.6 mph 27.6 mph N/A   Overcast
8:16 PM 48.2 °F - 48.2 °F 100% 29.70 in 3.0 mi SSE 19.6 mph 26.5 mph N/A   Overcast
8:55 PM 49.5 °F - 49.5 °F 100% 29.68 in 4.0 mi SSE 26.5 mph 32.2 mph N/A   Overcast
9:55 PM 50.0 °F - 50.0 °F 100% 29.66 in 3.0 mi SSE 19.6 mph 28.8 mph N/A   Overcast
10:55 PM 51.1 °F - 51.1 °F 100% 29.68 in 3.0 mi South 18.4 mph 25.3 mph N/A   Overcast
11:15 PM 51.8 °F - 51.8 °F 100% 29.70 in 3.0 mi South 9.2 mph - N/A   Light Drizzle
11:47 PM 51.8 °F - 51.8 °F 100% 29.69 in 2.5 mi South 13.8 mph - N/A Rain Light Rain
11:52 PM 51.8 °F - 51.8 °F 100% 29.68 in 3.0 mi SSE 15.0 mph - N/A Rain Light Rain
11:55 PM 51.4 °F - 51.4 °F 100% 29.68 in 3.0 mi South 16.1 mph - 0.01 in Rain Light Rain